Fort Drum, NY
on Sunday, December 10, 2017

Sunday
       
Previous Day Next Day
Daily Summary
 ActualAverageRecord
Temperature
Mean Temperature °F °C °F °C  
Max Temperature 30°F -1°C 33°F 0°C 54°F 12°C (2012)
Min Temperature 23°F -5°C 19°F -7°C 1°F -17°C (2010)
Degree Days
Heating Degree Days 38    
Moisture
Dew Point 22°F -6°C   
Average Humidity 79    
Maximum Humidity 94    
Minimum Humidity 59    
Precipitation
Precipitation 0.00 in / 0.00 cm in / cm in / cm ()
Snow
Snow 0.00 in / 0.00 cm in / cm in / cm ()
Snow Depth 9.00 in / 22.86 cm   
Wind
Wind Speed 6 mph / 10 km/h   
Max Wind Speed 14 mph / 23 km/h   
Max Gust Speed 22 mph / 35 km/h   
Visibility 8 miles / 13 kilometers   
Events Snow   
Averages and records for this station are not official NWS values.
Key: T is trace of precipitation, MM is missing value
Source: NWS Daily Summary
Seasonal Weather Averages
Time(EST)TemperatureDew PointHumidity Pressure Visibility Wind DirectionWind SpeedGust SpeedPrecipitationEvents Conditions
12:56 AM 24.1°F -4.4°C 18.0°F -7.8°C 77% 29.70 in / 1005.6 hPa 10.0 miles / 16.1 kilometers SSE 6.9 mph / 11.1 km/h - N/A   Overcast
1:19 AM 23.0°F -5.0°C 17.6°F -8.0°C 80% 29.70 in / 1005.7 hPa 10.0 miles / 16.1 kilometers SW 3.5 mph / 5.6 km/h - N/A Snow Light Snow
1:49 AM 26.6°F -3.0°C 23.0°F -5.0°C 86% 29.70 in / 1005.6 hPa 5.0 miles / 8.0 kilometers SW 8.1 mph / 13.0 km/h - N/A Snow Light Snow
1:56 AM 26.2°F -3.2°C 22.6°F -5.2°C 86% 29.71 in / 1005.9 hPa 5.0 miles / 8.0 kilometers SW 8.1 mph / 13.0 km/h - 0.00 in / 0.0 cm Snow Light Snow
2:06 AM 26.6°F -3.0°C 23.0°F -5.0°C 86% 29.70 in / 1005.6 hPa 6.0 miles / 9.7 kilometers SW 4.6 mph / 7.4 km/h - N/A Snow Light Snow
2:26 AM 26.6°F -3.0°C 23.0°F -5.0°C 86% 29.71 in / 1005.9 hPa 10.0 miles / 16.1 kilometers SW 4.6 mph / 7.4 km/h - N/A Snow Light Snow
2:27 AM 24.8°F -4.0°C 23.0°F -5.0°C 93% 29.70 in / 1005.6 hPa 10.0 miles / 16.1 kilometers SW 4.6 mph / 7.4 km/h - N/A   Mostly Cloudy
2:51 AM 24.8°F -4.0°C 21.2°F -6.0°C 86% 29.70 in / 1005.7 hPa 10.0 miles / 16.1 kilometers SSW 3.5 mph / 5.6 km/h - N/A Snow Light Snow
2:56 AM 23.9°F -4.5°C 21.2°F -6.0°C 89% 29.70 in / 1005.7 hPa 10.0 miles / 16.1 kilometers SSW 3.5 mph / 5.6 km/h - 0.00 in / 0.0 cm Snow Light Snow
3:16 AM 24.8°F -4.0°C 23.0°F -5.0°C 93% 29.71 in / 1006.0 hPa 4.0 miles / 6.4 kilometers WSW 5.8 mph / 9.3 km/h - N/A Snow Blowing Snow
3:51 AM 26.6°F -3.0°C 24.8°F -4.0°C 93% 29.70 in / 1005.6 hPa 4.0 miles / 6.4 kilometers SW 4.6 mph / 7.4 km/h - N/A Snow Light Snow
3:56 AM 26.2°F -3.2°C 23.9°F -4.5°C 91% 29.70 in / 1005.6 hPa 4.0 miles / 6.4 kilometers SW 5.8 mph / 9.3 km/h - 0.00 in / 0.0 cm Snow Light Snow
4:06 AM 26.6°F -3.0°C 24.8°F -4.0°C 93% 29.70 in / 1005.7 hPa 8.0 miles / 12.9 kilometers SW 5.8 mph / 9.3 km/h - N/A Snow Light Snow
4:09 AM 26.6°F -3.0°C 24.8°F -4.0°C 93% 29.70 in / 1005.7 hPa 9.0 miles / 14.5 kilometers SW 5.8 mph / 9.3 km/h - N/A   Overcast
4:13 AM 26.6°F -3.0°C 23.0°F -5.0°C 86% 29.70 in / 1005.7 hPa 10.0 miles / 16.1 kilometers SW 5.8 mph / 9.3 km/h - N/A   Mostly Cloudy
4:23 AM 24.8°F -4.0°C 23.0°F -5.0°C 93% 29.70 in / 1005.7 hPa 10.0 miles / 16.1 kilometers SW 5.8 mph / 9.3 km/h - N/A   Mostly Cloudy
4:56 AM 24.1°F -4.4°C 22.6°F -5.2°C 94% 29.70 in / 1005.7 hPa 8.0 miles / 12.9 kilometers WSW 4.6 mph / 7.4 km/h - 0.00 in / 0.0 cm   Scattered Clouds
5:56 AM 24.1°F -4.4°C 21.7°F -5.7°C 91% 29.71 in / 1006.1 hPa 10.0 miles / 16.1 kilometers WSW 4.6 mph / 7.4 km/h - N/A   Overcast
6:12 AM 24.8°F -4.0°C 23.0°F -5.0°C 93% 29.71 in / 1006.1 hPa 10.0 miles / 16.1 kilometers WSW 3.5 mph / 5.6 km/h - N/A Snow Light Snow
6:32 AM 26.6°F -3.0°C 23.0°F -5.0°C 86% 29.71 in / 1006.1 hPa 4.0 miles / 6.4 kilometers WSW 4.6 mph / 7.4 km/h - N/A Snow Light Snow
6:40 AM 26.6°F -3.0°C 23.0°F -5.0°C 86% 29.71 in / 1006.1 hPa 4.0 miles / 6.4 kilometers West 4.6 mph / 7.4 km/h - N/A Snow Blowing Snow
6:56 AM 26.4°F -3.1°C 23.5°F -4.7°C 89% 29.72 in / 1006.4 hPa 4.0 miles / 6.4 kilometers West 4.6 mph / 7.4 km/h - 0.00 in / 0.0 cm Snow Light Snow
7:16 AM 26.6°F -3.0°C 24.8°F -4.0°C 93% 29.72 in / 1006.4 hPa 9.0 miles / 14.5 kilometers West 5.8 mph / 9.3 km/h - N/A Snow Light Snow
7:27 AM 26.6°F -3.0°C 24.8°F -4.0°C 93% 29.73 in / 1006.7 hPa 7.0 miles / 11.3 kilometers West 9.2 mph / 14.8 km/h - N/A Snow Light Snow
7:29 AM 26.6°F -3.0°C 24.8°F -4.0°C 93% 29.73 in / 1006.7 hPa 8.0 miles / 12.9 kilometers West 8.1 mph / 13.0 km/h - N/A   Mostly Cloudy
7:39 AM 26.6°F -3.0°C 24.8°F -4.0°C 93% 29.73 in / 1006.7 hPa 9.0 miles / 14.5 kilometers West 6.9 mph / 11.1 km/h - N/A   Mostly Cloudy
7:49 AM 26.6°F -3.0°C 24.8°F -4.0°C 93% 29.74 in / 1007.1 hPa 10.0 miles / 16.1 kilometers West 6.9 mph / 11.1 km/h - N/A   Mostly Cloudy
7:56 AM 27.3°F -2.6°C 24.3°F -4.3°C 88% 29.74 in / 1007.1 hPa 10.0 miles / 16.1 kilometers West 10.4 mph / 16.7 km/h - 0.00 in / 0.0 cm   Overcast
8:06 AM 26.6°F -3.0°C 24.8°F -4.0°C 93% 29.75 in / 1007.4 hPa 10.0 miles / 16.1 kilometers West 9.2 mph / 14.8 km/h - N/A   Mostly Cloudy
8:56 AM 27.5°F -2.5°C 18.7°F -7.4°C 69% 29.77 in / 1008.1 hPa 10.0 miles / 16.1 kilometers West 6.9 mph / 11.1 km/h - N/A   Overcast
9:56 AM 27.7°F -2.4°C 15.6°F -9.1°C 61% 29.79 in / 1008.7 hPa 10.0 miles / 16.1 kilometers WNW 10.4 mph / 16.7 km/h 17.3 mph / 27.8 km/h N/A   Overcast
10:44 AM 28.4°F -2.0°C 15.8°F -9.0°C 59% 29.79 in / 1008.8 hPa 10.0 miles / 16.1 kilometers WNW 13.8 mph / 22.2 km/h 21.9 mph / 35.2 km/h N/A Snow Light Snow
10:48 AM 28.4°F -2.0°C 17.6°F -8.0°C 64% 29.79 in / 1008.7 hPa 10.0 miles / 16.1 kilometers WNW 11.5 mph / 18.5 km/h 19.6 mph / 31.5 km/h N/A   Partly Cloudy
10:56 AM 27.3°F -2.6°C 17.4°F -8.1°C 66% 29.79 in / 1008.8 hPa 10.0 miles / 16.1 kilometers WNW 9.2 mph / 14.8 km/h 18.4 mph / 29.6 km/h 0.00 in / 0.0 cm   Scattered Clouds
11:16 AM 26.6°F -3.0°C 17.6°F -8.0°C 69% 29.78 in / 1008.4 hPa 10.0 miles / 16.1 kilometers NW 8.1 mph / 13.0 km/h - N/A Snow Light Snow
11:22 AM 26.6°F -3.0°C 19.4°F -7.0°C 74% 29.78 in / 1008.4 hPa 9.0 miles / 14.5 kilometers WNW 9.2 mph / 14.8 km/h - N/A Snow Light Snow
11:36 AM 26.6°F -3.0°C 17.6°F -8.0°C 69% 29.78 in / 1008.4 hPa 10.0 miles / 16.1 kilometers WNW 8.1 mph / 13.0 km/h - N/A   Mostly Cloudy
11:53 AM 26.6°F -3.0°C 19.4°F -7.0°C 74% 29.78 in / 1008.4 hPa 10.0 miles / 16.1 kilometers WNW 9.2 mph / 14.8 km/h - N/A Snow Light Snow
11:56 AM 27.1°F -2.7°C 18.7°F -7.4°C 70% 29.78 in / 1008.4 hPa 10.0 miles / 16.1 kilometers WNW 9.2 mph / 14.8 km/h - 0.00 in / 0.0 cm Snow Light Snow
12:16 PM 26.6°F -3.0°C 19.4°F -7.0°C 74% 29.78 in / 1008.4 hPa 5.0 miles / 8.0 kilometers West 8.1 mph / 13.0 km/h - N/A Snow Light Snow
12:26 PM 26.6°F -3.0°C 19.4°F -7.0°C 74% 29.78 in / 1008.4 hPa 8.0 miles / 12.9 kilometers West 5.8 mph / 9.3 km/h - N/A Snow Blowing Snow
12:46 PM 26.6°F -3.0°C 17.6°F -8.0°C 69% 29.79 in / 1008.8 hPa 10.0 miles / 16.1 kilometers West 8.1 mph / 13.0 km/h - N/A   Overcast
12:56 PM 27.3°F -2.6°C 17.8°F -7.9°C 67% 29.79 in / 1008.8 hPa 10.0 miles / 16.1 kilometers WNW 8.1 mph / 13.0 km/h - 0.00 in / 0.0 cm   Overcast
12:58 PM 26.6°F -3.0°C 17.6°F -8.0°C 69% 29.79 in / 1008.8 hPa 10.0 miles / 16.1 kilometers WNW 5.8 mph / 9.3 km/h - N/A   Overcast
1:03 PM 26.6°F -3.0°C 17.6°F -8.0°C 69% 29.79 in / 1008.8 hPa 10.0 miles / 16.1 kilometers WNW 9.2 mph / 14.8 km/h - N/A   Overcast
1:10 PM 26.6°F -3.0°C 17.6°F -8.0°C 69% 29.79 in / 1008.8 hPa 10.0 miles / 16.1 kilometers West 6.9 mph / 11.1 km/h - N/A   Overcast
1:19 PM 26.6°F -3.0°C 17.6°F -8.0°C 69% 29.79 in / 1008.8 hPa 10.0 miles / 16.1 kilometers WNW 10.4 mph / 16.7 km/h - N/A Snow Light Snow
1:39 PM 26.6°F -3.0°C 17.6°F -8.0°C 69% 29.79 in / 1008.7 hPa 10.0 miles / 16.1 kilometers West 9.2 mph / 14.8 km/h - N/A Snow Light Snow
1:49 PM 28.4°F -2.0°C 17.6°F -8.0°C 64% 29.79 in / 1008.7 hPa 10.0 miles / 16.1 kilometers West 8.1 mph / 13.0 km/h - N/A Snow Light Snow
1:56 PM 27.5°F -2.5°C 18.7°F -7.4°C 69% 29.79 in / 1008.7 hPa 10.0 miles / 16.1 kilometers WSW 9.2 mph / 14.8 km/h - 0.00 in / 0.0 cm Snow Light Snow
1:58 PM 28.4°F -2.0°C 19.4°F -7.0°C 69% 29.79 in / 1008.7 hPa 10.0 miles / 16.1 kilometers West 9.2 mph / 14.8 km/h - N/A   Mostly Cloudy
2:56 PM 28.0°F -2.2°C 18.1°F -7.7°C 66% 29.79 in / 1008.7 hPa 10.0 miles / 16.1 kilometers WNW 3.5 mph / 5.6 km/h - 0.00 in / 0.0 cm   Scattered Clouds
3:13 PM 28.4°F -2.0°C 19.4°F -7.0°C 69% 29.79 in / 1008.7 hPa 10.0 miles / 16.1 kilometers West 6.9 mph / 11.1 km/h - N/A Snow Light Snow
3:34 PM 28.4°F -2.0°C 19.4°F -7.0°C 69% 29.79 in / 1008.7 hPa 8.0 miles / 12.9 kilometers WSW 9.2 mph / 14.8 km/h - N/A Snow Light Snow
3:56 PM 27.7°F -2.4°C 21.0°F -6.1°C 76% 29.79 in / 1008.7 hPa 6.0 miles / 9.7 kilometers WSW 8.1 mph / 13.0 km/h - 0.00 in / 0.0 cm Snow Light Snow
4:06 PM 28.4°F -2.0°C 23.0°F -5.0°C 80% 29.80 in / 1009.1 hPa 2.5 miles / 4.0 kilometers SW 9.2 mph / 14.8 km/h - N/A Snow Light Snow
4:16 PM 26.6°F -3.0°C 24.8°F -4.0°C 93% 29.80 in / 1009.1 hPa 0.9 miles / 1.4 kilometers WSW 6.9 mph / 11.1 km/h - N/A Snow Light Snow
4:26 PM 26.6°F -3.0°C 24.8°F -4.0°C 93% 29.80 in / 1009.1 hPa 1.1 miles / 1.8 kilometers WSW 6.9 mph / 11.1 km/h - N/A Snow Light Snow
4:36 PM 26.6°F -3.0°C 24.8°F -4.0°C 93% 29.80 in / 1009.1 hPa 2.0 miles / 3.2 kilometers SW 8.1 mph / 13.0 km/h - N/A Snow Light Snow
4:46 PM 26.6°F -3.0°C 24.8°F -4.0°C 93% 29.80 in / 1009.1 hPa 3.0 miles / 4.8 kilometers WSW 6.9 mph / 11.1 km/h - N/A Snow Light Snow
4:56 PM 27.1°F -2.7°C 24.1°F -4.4°C 88% 29.80 in / 1009.1 hPa 4.0 miles / 6.4 kilometers WSW 5.8 mph / 9.3 km/h - 0.00 in / 0.0 cm Snow Light Snow
5:16 PM 26.6°F -3.0°C 24.8°F -4.0°C 93% 29.80 in / 1009.1 hPa 5.0 miles / 8.0 kilometers WSW 3.5 mph / 5.6 km/h - N/A Snow Light Snow
5:46 PM 26.6°F -3.0°C 24.8°F -4.0°C 93% 29.81 in / 1009.5 hPa 8.0 miles / 12.9 kilometers SW 4.6 mph / 7.4 km/h - N/A Snow Light Snow
5:56 PM 27.7°F -2.4°C 24.3°F -4.3°C 87% 29.81 in / 1009.4 hPa 6.0 miles / 9.7 kilometers WSW 4.6 mph / 7.4 km/h - 0.00 in / 0.0 cm Snow Light Snow
6:06 PM 28.4°F -2.0°C 24.8°F -4.0°C 86% 29.81 in / 1009.4 hPa 8.0 miles / 12.9 kilometers West 9.2 mph / 14.8 km/h - N/A Snow Light Snow
6:16 PM 28.4°F -2.0°C 23.0°F -5.0°C 80% 29.81 in / 1009.4 hPa 10.0 miles / 16.1 kilometers WSW 10.4 mph / 16.7 km/h - N/A Snow Light Snow
6:18 PM 28.4°F -2.0°C 23.0°F -5.0°C 80% 29.81 in / 1009.4 hPa 10.0 miles / 16.1 kilometers West 8.1 mph / 13.0 km/h - N/A   Overcast
6:25 PM 28.4°F -2.0°C 23.0°F -5.0°C 80% 29.81 in / 1009.4 hPa 10.0 miles / 16.1 kilometers WSW 8.1 mph / 13.0 km/h - N/A Snow Light Snow
6:45 PM 28.4°F -2.0°C 23.0°F -5.0°C 80% 29.81 in / 1009.4 hPa 10.0 miles / 16.1 kilometers West 9.2 mph / 14.8 km/h - N/A Snow Light Snow
6:56 PM 28.9°F -1.7°C 22.6°F -5.2°C 77% 29.81 in / 1009.4 hPa 10.0 miles / 16.1 kilometers West 9.2 mph / 14.8 km/h - 0.00 in / 0.0 cm Snow Light Snow
7:25 PM 28.4°F -2.0°C 23.0°F -5.0°C 80% 29.81 in / 1009.4 hPa 10.0 miles / 16.1 kilometers WSW 9.2 mph / 14.8 km/h 17.3 mph / 27.8 km/h N/A   Overcast
7:56 PM 29.3°F -1.5°C 22.1°F -5.5°C 75% 29.81 in / 1009.4 hPa 10.0 miles / 16.1 kilometers WSW 6.9 mph / 11.1 km/h - 0.00 in / 0.0 cm   Overcast
7:59 PM 30.2°F -1.0°C 21.2°F -6.0°C 69% 29.81 in / 1009.4 hPa 10.0 miles / 16.1 kilometers West 6.9 mph / 11.1 km/h - N/A Snow Light Snow
8:09 PM 30.2°F -1.0°C 21.2°F -6.0°C 69% 29.82 in / 1009.7 hPa 10.0 miles / 16.1 kilometers West 4.6 mph / 7.4 km/h - N/A Snow Light Snow
8:37 PM 30.2°F -1.0°C 23.0°F -5.0°C 75% 29.82 in / 1009.7 hPa 10.0 miles / 16.1 kilometers West 8.1 mph / 13.0 km/h - N/A   Mostly Cloudy
8:40 PM 30.2°F -1.0°C 21.2°F -6.0°C 69% 29.82 in / 1009.7 hPa 10.0 miles / 16.1 kilometers West 6.9 mph / 11.1 km/h - N/A Snow Light Snow
8:49 PM 30.2°F -1.0°C 21.2°F -6.0°C 69% 29.82 in / 1009.7 hPa 10.0 miles / 16.1 kilometers WSW 6.9 mph / 11.1 km/h - N/A   Overcast
8:51 PM 30.2°F -1.0°C 21.2°F -6.0°C 69% 29.82 in / 1009.7 hPa 10.0 miles / 16.1 kilometers WSW 8.1 mph / 13.0 km/h - N/A Snow Light Snow
8:56 PM 30.0°F -1.1°C 21.7°F -5.7°C 71% 29.81 in / 1009.4 hPa 10.0 miles / 16.1 kilometers West 6.9 mph / 11.1 km/h - 0.00 in / 0.0 cm Snow Light Snow
9:01 PM 30.2°F -1.0°C 21.2°F -6.0°C 69% 29.82 in / 1009.7 hPa 10.0 miles / 16.1 kilometers West 8.1 mph / 13.0 km/h - N/A   Overcast
9:11 PM 30.2°F -1.0°C 21.2°F -6.0°C 69% 29.81 in / 1009.4 hPa 10.0 miles / 16.1 kilometers WSW 4.6 mph / 7.4 km/h - N/A   Overcast
9:49 PM 30.2°F -1.0°C 19.4°F -7.0°C 64% 29.82 in / 1009.7 hPa 10.0 miles / 16.1 kilometers West 6.9 mph / 11.1 km/h - N/A Snow Light Snow
9:57 PM 30.2°F -1.0°C 20.1°F -6.6°C 66% 29.82 in / 1009.7 hPa 10.0 miles / 16.1 kilometers West 3.5 mph / 5.6 km/h - 0.00 in / 0.0 cm Snow Light Snow
10:04 PM 30.2°F -1.0°C 19.4°F -7.0°C 64% 29.82 in / 1009.7 hPa 10.0 miles / 16.1 kilometers West 5.8 mph / 9.3 km/h - N/A   Overcast
10:19 PM 30.2°F -1.0°C 21.2°F -6.0°C 69% 29.82 in / 1009.6 hPa 10.0 miles / 16.1 kilometers West 4.6 mph / 7.4 km/h - N/A Snow Light Snow
10:28 PM 30.2°F -1.0°C 21.2°F -6.0°C 69% 29.82 in / 1009.6 hPa 10.0 miles / 16.1 kilometers Calm Calm - N/A   Mostly Cloudy
10:38 PM 30.2°F -1.0°C 21.2°F -6.0°C 69% 29.82 in / 1009.7 hPa 10.0 miles / 16.1 kilometers NW 3.5 mph / 5.6 km/h - N/A   Scattered Clouds
10:42 PM 30.2°F -1.0°C 21.2°F -6.0°C 69% 29.83 in / 1010.0 hPa 10.0 miles / 16.1 kilometers NW 3.5 mph / 5.6 km/h - N/A Snow Light Snow
10:52 PM 30.2°F -1.0°C 23.0°F -5.0°C 75% 29.83 in / 1010.0 hPa 4.0 miles / 6.4 kilometers NW 3.5 mph / 5.6 km/h - N/A Snow Blowing Snow
10:56 PM 29.1°F -1.6°C 23.2°F -4.9°C 78% 29.83 in / 1010.0 hPa 3.0 miles / 4.8 kilometers West 4.6 mph / 7.4 km/h - 0.00 in / 0.0 cm Snow Blowing Snow
11:16 PM 28.4°F -2.0°C 24.8°F -4.0°C 86% 29.84 in / 1010.4 hPa 2.2 miles / 3.6 kilometers West 4.6 mph / 7.4 km/h - N/A Snow Light Snow
11:26 PM 28.4°F -2.0°C 24.8°F -4.0°C 86% 29.84 in / 1010.4 hPa 1.8 miles / 2.8 kilometers WNW 6.9 mph / 11.1 km/h - N/A Snow Light Snow
11:36 PM 28.4°F -2.0°C 24.8°F -4.0°C 86% 29.84 in / 1010.4 hPa 4.0 miles / 6.4 kilometers West 5.8 mph / 9.3 km/h - N/A Snow Light Snow
11:46 PM 28.4°F -2.0°C 23.0°F -5.0°C 80% 29.84 in / 1010.4 hPa 9.0 miles / 14.5 kilometers West 3.5 mph / 5.6 km/h - N/A Snow Light Snow
11:56 PM 28.0°F -2.2°C 22.6°F -5.2°C 80% 29.84 in / 1010.4 hPa 10.0 miles / 16.1 kilometers Calm Calm - 0.00 in / 0.0 cm Snow Light Snow